Home   Weather   Minamisōma   Past weeks

Flag for Japan Past Weather in Minamisōma, Japan — Yesterday and Last 2 Weeks

Now
37 °F

Passing clouds.


Feels Like: 35 °F
Forecast: 26 / 42 °F
Wind: 3 mph from Northeast

Location: Sendai Airport

Current Time: Jan 19, 2017 at 10:03:18 pm

Latest Report: Jan 19, 2017 at 9:00 pm


Visibility: N/A

Pressure: 30.07 "Hg

Humidity: 65%

Dew Point: 27 °F

Location of MinamisōmaLocation

Past Weather in Minamisōma — Graph

°F

Minamisōma Temperature Yesterday

Maximum temperature yesterday: 46 °F (at 2:00 pm)
Minimum temperature yesterday: 28 °F (at 6:00 am)
Average temperature yesterday: 39 °F

High & Low Weather Summary for the Past Weeks

 TemperatureHumidityPressure
High50 °F (Jan 7, 2:00 pm)100% (Jan 12, 6:00 am)30.39 "Hg (Jan 12, 6:00 am)
Low21 °F (Jan 15, 7:10 am)29% (Jan 10, 10:00 am)29.53 "Hg (Jan 9, 1:00 pm)
Average36 °F63%29.89 "Hg
* Reported Jan 4 8:00 pm — Jan 19 8:00 pm, Minamisōma, Weather by CustomWeather, © 2017

Note: Actual official high and low records may vary slightly from our data, if they occured in-between our weather recording intervals... More about our weather records

Advertising

Minamisōma Weather History for the Previous 24 Hours

Scroll right to see more
 ConditionsComfort  
Time TempWeatherWind HumidityBarometerVisibility
8:00 pm
Thu, Jan 19
37 °FPassing clouds.2 mph65%30.09 "HgN/A
7:00 pm37 °FPassing clouds.8 mph65%30.09 "HgN/A
6:00 pm36 °FPassing clouds.5 mph70%30.09 "HgN/A
5:00 pm41 °FPassing clouds.6 mph45%30.07 "HgN/A
4:00 pm43 °FPartly sunny.12 mph42%30.04 "HgN/A
3:05 pm43 °FPartly sunny.18 mph39%30.04 "HgN/A
3:00 pm43 °FPartly sunny.21 mph36%30.04 "HgN/A
2:37 pm43 °FPartly sunny.17 mph36%30.04 "HgN/A
2:00 pm45 °FScattered clouds.16 mph34%30.04 "HgN/A
1:12 pm45 °FScattered clouds.20 mph31%30.04 "HgN/A
1:00 pm46 °FScattered clouds.22 mph29%30.04 "HgN/A
12:00 pm45 °FScattered clouds.26 mph34%30.04 "HgN/A
11:07 am45 °FScattered clouds.26 mph34%30.07 "HgN/A
11:00 am45 °FScattered clouds.26 mph34%30.07 "HgN/A
10:39 am45 °FScattered clouds.21 mph34%30.07 "HgN/A
10:00 am43 °FPassing clouds.16 mph36%30.07 "HgN/A
9:00 am41 °FPassing clouds.21 mph42%30.07 "HgN/A
8:00 am39 °FPassing clouds.26 mph48%30.07 "HgN/A
7:30 am37 °FPassing clouds.21 mph56%30.07 "HgN/A
7:00 am37 °FPassing clouds.23 mph56%30.07 "HgN/A
6:25 am37 °FPassing clouds.16 mph65%30.07 "HgN/A
6:00 am32 °FPassing clouds.5 mph75%30.07 "HgN/A
Weather by CustomWeather, © 2017

See weather overviewHow to use our weather pages